Location: Unspecified
(0.0000°N, 0.0000°E)
Time: 12:01:07
(UTC+00:00)

Transit 4A - Pass Details

Date: 22 December 2018
Orbit: 864 x 981 km, 66.8° (Epoch: 25 March)

Event Time Altitude Azimuth Distance (km) Brightness Sun altitude
Rises 10:40:03 0° 22° (NNE) 3,615 10.8 59.8°
Reaches altitude 10° 10:45:41 10° 63° (ENE) 2,702 10.5 60.6°
Maximum altitude 10:46:28 10° 70° (ENE) 2,689 10.6 60.7°
Drops below altitude 10° 10:47:15 10° 77° (ENE) 2,710 10.6 60.9°
Sets 10:52:56 0° 117° (ESE) 3,676 11.4 61.7°
